Location: Irma
(52.9170°N, 111.2330°W)
Time: 13:17:52
(UTC-07:00)

Cosmos 1633 Rocket - Visible Passes

Search period start: 04 March 2015 00:00
Search period end: 14 March 2015 01:00
Orbit: 609 x 624 km, 82.5° (Epoch: 03 March)

Date Brightness Start Highest point End Pass type
(mag) Time Alt. Az. Time Alt. Az. Time Alt. Az.
04 Mar 5.6 21:53:56 10° N 21:54:48 15° N 21:54:48 15° N visible
05 Mar 5.5 20:34:17 10° NNE 20:34:25 10° NNE 20:34:25 10° NNE visible
05 Mar 5.6 22:10:29 10° N 22:11:32 17° N 22:11:32 17° N visible
06 Mar 5.3 20:50:04 10° NNE 20:51:10 14° NNE 20:51:10 14° NNE visible
06 Mar 5.7 22:27:09 10° NNW 22:28:17 17° NNW 22:28:17 17° NNW visible
07 Mar 5.0 21:06:16 10° N 21:07:56 19° NNE 21:07:56 19° NNE visible
07 Mar 5.8 22:43:59 10° NNW 22:45:02 16° NNW 22:45:02 16° NNW visible
08 Mar 4.8 22:22:40 10° N 22:24:42 25° NNE 22:24:42 25° NNE visible
09 Mar 6.0 00:00:59 10° NW 00:01:49 14° NW 00:01:49 14° NW visible
09 Mar 5.2 21:03:04 10° NNE 21:04:22 12° NE 21:04:22 12° NE visible
09 Mar 4.7 22:39:13 10° N 22:41:30 30° N 22:41:30 30° N visible
10 Mar 6.2 00:18:23 10° NW 00:18:37 11° NW 00:18:37 11° NW visible
10 Mar 4.8 21:18:48 10° NNE 21:21:11 18° NE 21:21:11 18° NE visible
10 Mar 4.7 22:55:53 10° NNW 22:58:19 31° NNW 22:58:19 31° NNW visible
11 Mar 4.3 21:34:59 10° N 21:38:01 27° NE 21:38:01 27° NE visible
11 Mar 5.0 23:12:41 10° NNW 23:15:09 28° NW 23:15:09 28° NW visible
12 Mar 3.7 21:51:24 10° N 21:54:53 41° NE 21:54:53 41° NE visible
12 Mar 5.4 23:29:41 10° NNW 23:32:01 21° WNW 23:32:01 21° WNW visible
13 Mar 5.0 20:31:49 10° NNE 20:33:38 12° NE 20:34:38 12° ENE visible
13 Mar 3.2 22:07:55 10° N 22:11:46 63° NNE 22:11:46 63° NNE visible
13 Mar 5.8 23:47:03 10° NW 23:48:54 15° WNW 23:48:54 15° WNW visible
